Погода в Тельвиске

Россия / Ненецкий автономный округ     67°38′00″N   52°53′11″E
темп.,
°C
ветер,
м/с
пор.,
м/с
влажн.,
%
обл.,
%
осадки,
мм/ч
давл.,
гПа
погр.,
м
28 сентября, вт
вт2800:00+7зюз61288100 0.0 1027497
03:00+7з4894100 0.1 1026331
06:00+7ссз599395 0.1 1027378
09:00+8с5783100 0.1 1028453
12:00+9с45688 0.0 1029716
15:00+9с346880 0.0 1030656
18:00+5с228670 0.0 103123
21:00+4сз118985 0.0 103110
29 сентября, ср
ср2900:00+4зюз2286100 0.0 103014
03:00+4юз3682100 0.0 1029151
06:00+5юз51083100 0.0 1027234
09:00+7юз61278100 0.0 1025362
12:00+10зюз7117666 0.0 1023612
15:00+10зсз697741 0.0 1022637
18:00+8сз588499 0.0 1022470
21:00+6сз489166 0.0 1022319
30 сентября, чт
чт3000:00+6с6108888 0.0 1023424
03:00+5ссз5108992 0.0 1024363
06:00+5с4780100 0.0 1025321
09:00+6св358550 0.0 1027429
12:00+8всв446492 0.0 1028920
15:00+7всв3461100 0.0 1029540
18:00+4всв3369100 0.0 102950
21:00+4вюв227293 0.0 103031
1 октября, пт
пт100:00+3ю227294 0.0 102918
03:00+2ююз227394 0.0 102922
06:00+1юз22779 0.0 102818
09:00+4зюз23695 0.0 1027224
12:00+7з3467100 0.0 1027576
15:00+7сз2372100 0.0 1026103
18:00+3с239076 0.0 102626
21:00+4ссв128699 0.0 102531
2 октября, сб
сб200:00+4юз0083100 0.0 102515
03:00+4ююз2282100 0.0 102431
06:00+4ююз2375100 0.0 102358
09:00+6юз4681100 0.0 1023247
12:00+6юз4786100 0.0 1023338
15:00+8зюз577395 0.0 1023468
18:00+7зюз3776100 0.0 1023169
21:00+5зюз469078 0.0 102397